Вернуться в каталог

STARLINK-35625

АктивенСвязьVLEO
NORAD 66140·PAYLOAD·🇺🇸 United States

Запущен Oct 22, 2025 с Vandenberg Space Force Base

Loading…

Ближайшие Пролёты (ближайшие 24 часа)

TLE

СвежийSource: CelesTrak SupGP

Эпоха: Sep 14, 2026, 15:23 UTC

1 66140C 25237AC  26257.64145833 -.00024188  00000+0 -71488-3 0  2574
2 66140  53.1570 238.8938 0001263  86.5898 254.4570 15.34392010    13

Отслеживайте STARLINK-35625 в реальном времени с AllMySat

Download on the App Store